When you browse on this site, cookies collect data to enhance your experience and personalize the content and advertising you see.
Visit our Privacy Policy to learn more. By continuing to use the site, you agree to this use of cookies and data.

Hourly Weather Konoplevo

Today, 12 August, Wednesday

Time Temperature Precipitation Wind Pressure Humidity
00:00 +12°C° 0 mm 3 mps 744 mmHg 93%
01:00 +12°C° 0 mm 3 mps 744 mmHg 94%
02:00 +12°C° 0 mm 3 mps 744 mmHg 96%
03:00 +12°C° 0.2 mm 3 mps 744 mmHg 96%
04:00 +12°C° 0.2 mm 3 mps 744 mmHg 96%
05:00 +12°C° 0.2 mm 3 mps 744 mmHg 96%
06:00 +12°C° 0.2 mm 4 mps 744 mmHg 96%
07:00 +12°C° 0.2 mm 4 mps 744 mmHg 95%
08:00 +12°C° 0 mm 4 mps 745 mmHg 94%
09:00 +12°C° 0 mm 4 mps 745 mmHg 93%
10:00 +12°C° 0 mm 5 mps 745 mmHg 93%
11:00 +12°C° 0 mm 5 mps 745 mmHg 92%
12:00 +12°C° 0 mm 5 mps 745 mmHg 89%
13:00 +13°C° 0 mm 5 mps 745 mmHg 87%
14:00 +13°C° 0 mm 4 mps 746 mmHg 83%
15:00 +13°C° 0 mm 4 mps 746 mmHg 80%
16:00 +14°C° 0 mm 4 mps 746 mmHg 77%
17:00 +14°C° 0 mm 4 mps 746 mmHg 74%
18:00 +13°C° 0 mm 3 mps 746 mmHg 76%
19:00 +14°C° 0 mm 2 mps 746 mmHg 77%
20:00 +13°C° 0 mm 2 mps 746 mmHg 79%
21:00 +13°C° 0 mm 2 mps 746 mmHg 80%
22:00 +12°C° 0 mm 2 mps 746 mmHg 80%
23:00 +11°C° 0 mm 3 mps 746 mmHg 81%

Tomorrow, 13 August, Thursday

Time Temperature Precipitation Wind Pressure Humidity
00:00 +10°C° 0 mm 2 mps 746 mmHg 84%
01:00 +9°C° 0 mm 2 mps 746 mmHg 86%
02:00 +8°C° 0 mm 2 mps 746 mmHg 89%
03:00 +8°C° 0 mm 2 mps 746 mmHg 88%
04:00 +8°C° 0 mm 2 mps 746 mmHg 87%
05:00 +8°C° 0 mm 2 mps 746 mmHg 85%
06:00 +9°C° 0 mm 3 mps 746 mmHg 80%
07:00 +11°C° 0 mm 3 mps 746 mmHg 75%
08:00 +12°C° 0 mm 3 mps 746 mmHg 69%
09:00 +13°C° 0 mm 3 mps 746 mmHg 63%
10:00 +16°C° 0 mm 3 mps 746 mmHg 56%
11:00 +17°C° 0 mm 3 mps 746 mmHg 50%
12:00 +17°C° 0 mm 3 mps 746 mmHg 51%
13:00 +17°C° 0 mm 3 mps 746 mmHg 52%
14:00 +18°C° 0 mm 3 mps 746 mmHg 53%
15:00 +17°C° 0 mm 3 mps 746 mmHg 58%
16:00 +16°C° 0 mm 2 mps 746 mmHg 64%
17:00 +15°C° 0 mm 2 mps 745 mmHg 69%
18:00 +14°C° 0 mm 2 mps 746 mmHg 75%
19:00 +13°C° 0 mm 2 mps 746 mmHg 80%
20:00 +12°C° 0 mm 2 mps 746 mmHg 85%
21:00 +10°C° 0 mm 2 mps 746 mmHg 88%
22:00 +9°C° 0 mm 2 mps 746 mmHg 91%
23:00 +8°C° 0 mm 2 mps 746 mmHg 93%

Day after tomorrow, 14 August, Friday

Time Temperature Precipitation Wind Pressure Humidity
00:00 +8°C° 0 mm 2 mps 746 mmHg 94%
01:00 +7°C° 0 mm 2 mps 746 mmHg 95%
02:00 +7°C° 0 mm 2 mps 746 mmHg 96%
03:00 +7°C° 0 mm 2 mps 747 mmHg 96%
04:00 +7°C° 0 mm 2 mps 747 mmHg 96%
05:00 +7°C° 0 mm 2 mps 747 mmHg 96%
06:00 +9°C° 0 mm 2 mps 747 mmHg 88%
07:00 +12°C° 0 mm 2 mps 747 mmHg 79%
08:00 +14°C° 0 mm 2 mps 747 mmHg 70%
09:00 +15°C° 0 mm 2 mps 747 mmHg 63%
10:00 +16°C° 0 mm 2 mps 747 mmHg 56%
11:00 +18°C° 0 mm 2 mps 747 mmHg 49%
12:00 +18°C° 0 mm 2 mps 747 mmHg 48%
13:00 +19°C° 0 mm 2 mps 747 mmHg 46%
14:00 +19°C° 0 mm 2 mps 747 mmHg 45%
15:00 +19°C° 0 mm 2 mps 747 mmHg 49%
16:00 +19°C° 0 mm 2 mps 746 mmHg 54%
17:00 +19°C° 0 mm 2 mps 746 mmHg 58%
18:00 +18°C° 0 mm 1 mps 747 mmHg 64%
19:00 +15°C° 0 mm 1 mps 747 mmHg 70%
20:00 +13°C° 0 mm 1 mps 747 mmHg 77%
21:00 +12°C° 0 mm 1 mps 747 mmHg 79%
22:00 +12°C° 0 mm 1 mps 747 mmHg 81%
23:00 +11°C° 0 mm 1 mps 747 mmHg 83%

15 August, Saturday

Time Temperature Precipitation Wind Pressure Humidity
00:00 +11°C° 0 mm 1 mps 747 mmHg 85%
01:00 +10°C° 0 mm 1 mps 747 mmHg 88%
02:00 +10°C° 0 mm 1 mps 747 mmHg 90%
03:00 +10°C° 0 mm 1 mps 747 mmHg 89%
04:00 +10°C° 0 mm 1 mps 747 mmHg 88%
05:00 +10°C° 0 mm 1 mps 747 mmHg 88%
06:00 +12°C° 0 mm 1 mps 747 mmHg 81%
07:00 +14°C° 0 mm 1 mps 748 mmHg 73%
08:00 +16°C° 0 mm 1 mps 748 mmHg 66%
09:00 +19°C° 0 mm 1 mps 748 mmHg 61%
10:00 +20°C° 0 mm 1 mps 747 mmHg 55%
11:00 +22°C° 0 mm 1 mps 747 mmHg 49%
12:00 +22°C° 0 mm 1 mps 747 mmHg 48%
13:00 +21°C° 0 mm 2 mps 747 mmHg 47%
14:00 +23°C° 0 mm 2 mps 747 mmHg 46%
15:00 +22°C° 0 mm 1 mps 746 mmHg 51%
16:00 +22°C° 0 mm 1 mps 746 mmHg 56%
17:00 +22°C° 0 mm 1 mps 746 mmHg 61%
18:00 +20°C° 0 mm 1 mps 746 mmHg 67%
19:00 +16°C° 0 mm 1 mps 746 mmHg 73%
20:00 +14°C° 0 mm 1 mps 746 mmHg 78%
21:00 +14°C° 0 mm 1 mps 746 mmHg 81%
22:00 +13°C° 0 mm 1 mps 745 mmHg 85%
23:00 +13°C° 0 mm 1 mps 745 mmHg 88%

16 August, Sunday

Time Temperature Precipitation Wind Pressure Humidity
00:00 +13°C° 0 mm 1 mps 745 mmHg 90%
01:00 +13°C° 0 mm 1 mps 745 mmHg 93%
02:00 +12°C° 0 mm 1 mps 745 mmHg 96%
03:00 +12°C° 0 mm 1 mps 745 mmHg 96%
04:00 +12°C° 0 mm 1 mps 745 mmHg 97%
05:00 +12°C° 0 mm 1 mps 744 mmHg 98%
06:00 +14°C° 0 mm 2 mps 744 mmHg 91%
07:00 +16°C° 0 mm 2 mps 744 mmHg 85%
08:00 +18°C° 0 mm 2 mps 744 mmHg 78%
09:00 +20°C° 0 mm 2 mps 744 mmHg 74%
10:00 +21°C° 0 mm 3 mps 744 mmHg 69%
11:00 +24°C° 0 mm 3 mps 744 mmHg 65%
12:00 +23°C° 0.1 mm 4 mps 743 mmHg 60%
13:00 +25°C° 0.1 mm 4 mps 743 mmHg 55%
14:00 +25°C° 0.1 mm 5 mps 743 mmHg 51%
15:00 +25°C° 0 mm 4 mps 743 mmHg 55%
16:00 +24°C° 0 mm 3 mps 743 mmHg 59%
17:00 +24°C° 0 mm 2 mps 742 mmHg 64%
18:00 +21°C° 0 mm 2 mps 742 mmHg 70%
19:00 +19°C° 0 mm 2 mps 742 mmHg 76%
20:00 +18°C° 0 mm 3 mps 742 mmHg 83%
21:00 +17°C° 0 mm 2 mps 742 mmHg 87%
22:00 +17°C° 0 mm 2 mps 742 mmHg 91%
23:00 +16°C° 0 mm 2 mps 742 mmHg 95%

17 August, Monday

Time Temperature Precipitation Wind Pressure Humidity
00:00 +15°C° 0 mm 2 mps 742 mmHg 96%
01:00 +15°C° 0 mm 2 mps 742 mmHg 97%
02:00 +14°C° 0 mm 2 mps 742 mmHg 98%
03:00 +14°C° 0 mm 2 mps 742 mmHg 97%
04:00 +14°C° 0 mm 2 mps 742 mmHg 97%
05:00 +13°C° 0 mm 2 mps 742 mmHg 96%
06:00 +15°C° 0 mm 2 mps 743 mmHg 85%
07:00 +16°C° 0 mm 2 mps 743 mmHg 75%
08:00 +18°C° 0 mm 2 mps 743 mmHg 64%
09:00 +19°C° 0 mm 2 mps 743 mmHg 58%
10:00 +20°C° 0 mm 3 mps 743 mmHg 52%
11:00 +21°C° 0 mm 3 mps 743 mmHg 46%
12:00 +22°C° 0 mm 3 mps 742 mmHg 45%
13:00 +22°C° 0 mm 3 mps 742 mmHg 44%
14:00 +24°C° 0 mm 3 mps 742 mmHg 42%
15:00 +22°C° 0 mm 3 mps 742 mmHg 47%
16:00 +22°C° 0 mm 3 mps 741 mmHg 51%
17:00 +21°C° 0 mm 2 mps 741 mmHg 56%
18:00 +19°C° 0 mm 2 mps 741 mmHg 59%
19:00 +18°C° 0 mm 2 mps 741 mmHg 62%
20:00 +16°C° 0 mm 2 mps 741 mmHg 65%
21:00 +15°C° 0 mm 2 mps 741 mmHg 68%
22:00 +15°C° 0 mm 2 mps 741 mmHg 70%
23:00 +14°C° 0 mm 2 mps 741 mmHg 73%
Show more